Theta_e
328 329 329 329 329 329 329 329 328 328 328 327 326 324 324 324 323 319 315 314 314 313 313 313 313 315 315 322 332 327 318 324 330 346 343 350 349 350 350 351 349 350 349 345 344 345 342
328 328 329 329 329 328 327 328 328 328 327 326 325 324 323 323 323 317 315 313 313 314 313 313 313 315 316 331 329 318 323 322 333 339 347 347 346 344 349 352 351 349 348 346 343 344 344
327 328 329 328 327 327 327 327 327 327 326 325 324 323 323 323 321 315 313 314 314 314 313 313 314 315 328 330 328 321 329 330 339 345 337 342 343 339 341 353 347 349 351 347 345 345 346
327 328 328 328 327 327 327 327 327 327 326 325 324 323 322 323 316 314 321 321 314 314 313 313 314 317 332 329 328 327 329 330 329 333 330 333 340 337 340 351 350 353 350 356 350 348 348
325 326 326 327 326 326 326 326 326 327 327 326 325 323 321 322 317 321 322 314 313 313 313 313 316 326 331 325 327 325 326 326 325 329 331 336 335 336 341 351 357 353 355 353 347 346 350
324 324 325 325 325 325 325 324 324 323 323 324 326 325 321 322 319 322 322 321 315 314 313 318 328 328 328 325 325 325 324 323 324 326 331 337 337 337 340 350 362 355 355 351 354 352 351
327 326 326 325 325 325 325 325 324 324 324 323 323 325 325 322 320 321 322 328 327 325 323 327 327 329 327 326 326 326 323 323 323 325 332 335 336 336 338 349 350 349 353 353 349 349 351
327 326 326 326 325 325 325 325 325 325 325 325 324 324 326 320 319 319 322 329 326 327 328 324 325 326 326 325 325 325 324 323 324 326 331 335 333 335 337 343 346 347 351 351 351 347 351
326 326 325 325 325 325 325 325 324 324 324 324 324 324 326 320 319 320 325 326 323 324 326 329 324 325 326 324 325 327 324 323 326 327 330 335 334 332 335 338 338 340 340 349 345 346 344
327 326 326 325 325 325 325 324 324 323 323 323 323 324 324 320 325 327 326 326 324 324 330 331 325 325 326 325 326 326 325 326 328 327 330 333 333 332 333 333 337 339 339 339 340 339 345
327 326 326 326 325 325 324 323 322 322 322 322 321 323 324 327 326 329 328 325 324 325 337 328 327 326 326 326 328 326 327 327 328 329 330 333 331 331 331 332 332 337 337 337 340 340 341
326 325 325 324 324 323 323 323 323 322 322 322 321 321 323 331 325 327 327 326 324 329 335 329 327 327 327 326 328 327 327 327 328 328 329 329 332 330 330 330 329 331 332 333 335 339 341
324 323 322 321 321 320 321 321 321 321 321 321 322 321 322 324 331 329 325 326 328 331 333 331 328 328 328 328 328 329 328 328 328 327 328 329 329 329 328 327 328 328 328 331 335 339 341
322 320 318 317 316 315 315 316 316 316 317 319 319 322 326 324 328 328 326 329 333 335 334 332 330 329 328 329 328 328 330 329 328 329 329 330 330 329 329 327 327 327 328 328 335 340 341
318 316 315 314 313 311 311 311 311 312 313 315 316 323 329 331 328 326 327 331 335 335 334 332 330 329 329 329 329 328 328 330 330 329 330 330 331 332 329 328 327 328 328 328 328 330 333
314 313 311 309 309 309 309 309 309 309 310 311 315 325 331 331 326 325 328 331 334 334 332 331 331 330 330 330 329 329 329 329 330 331 330 330 331 331 330 329 328 327 329 329 328 332 334
311 308 308 308 309 309 309 309 309 309 309 310 316 328 330 328 326 326 330 331 332 332 332 330 330 331 332 331 330 330 329 330 330 330 331 330 329 330 330 328 328 327 327 328 329 330 331
307 307 308 309 309 308 309 309 309 309 309 309 321 328 330 328 328 327 330 330 330 332 331 329 329 330 331 332 333 332 330 330 330 329 329 330 329 329 330 330 329 328 328 328 329 333 332
308 308 308 308 308 309 310 311 311 310 309 308 320 320 321 326 328 327 328 330 330 331 331 329 329 329 330 331 333 333 332 331 330 330 328 329 329 329 330 330 329 328 328 329 329 329 334
307 307 307 309 310 311 311 312 312 312 310 308 319 323 325 327 329 329 328 328 330 331 330 329 329 329 330 331 331 332 332 332 330 329 324 327 328 329 329 331 331 329 328 329 329 332 330
307 308 311 312 313 313 313 313 314 312 313 308 321 323 323 326 328 328 328 332 331 330 329 330 331 330 331 333 333 332 331 332 331 328 327 326 327 329 328 329 329 330 330 329 328 329 330
308 311 313 313 313 313 312 312 313 314 312 312 318 320 320 321 324 325 323 326 328 327 327 330 331 332 331 332 333 334 334 332 332 331 327 326 329 327 327 328 328 328 329 329 330 329 328
311 313 313 313 312 312 312 312 312 313 314 317 319 320 321 321 321 321 320 321 324 326 326 327 328 330 331 332 332 331 331 332 332 333 333 329 329 331 329 327 328 329 328 328 329 329 329
312 313 313 313 312 313 313 313 312 312 313 313 316 317 319 322 322 322 322 322 322 323 326 327 328 330 330 330 330 331 331 331 332 331 331 333 338 333 333 331 332 329 329 329 329 329 329
312 313 312 312 312 312 313 313 311 311 312 313 315 317 318 322 321 321 320 321 321 323 325 325 326 326 328 328 331 333 334 334 333 332 332 331 331 332 335 333 331 330 330 330 331 332 331
312 312 312 312 311 311 312 313 312 311 312 313 313 314 316 318 320 320 322 321 323 323 323 323 322 323 324 327 329 333 331 330 331 331 331 331 333 335 332 333 336 333 331 331 331 336 336
312 312 311 311 311 311 312 313 312 312 313 313 313 313 314 316 317 317 321 321 321 323 324 323 325 324 324 327 327 328 329 326 330 332 332 334 336 335 335 332 331 330 330 330 334 337 335
312 312 312 312 312 311 312 313 312 312 313 313 313 312 312 314 315 316 318 319 320 320 323 322 325 324 324 326 326 326 327 326 328 330 330 333 338 338 337 337 335 329 329 331 340 337 334
312 312 312 312 311 311 311 313 313 312 313 313 312 312 312 312 313 314 316 317 318 319 319 320 323 325 327 329 329 328 327 326 329 330 329 334 331 337 336 334 334 329 333 334 329 334 335
Wind_Speed
20 20 22 20 19 18 16 15 14 13 13 13 15 15 14 14 11 8 7 6 4 2 2 2 4 5 5 7 5 6 10 11 10 8 6 10 13 5 6 14 7 9 9 11 11 18 12
21 20 21 21 20 18 17 16 15 14 14 14 15 17 16 14 10 8 7 4 2 1 2 3 5 7 6 9 3 4 10 10 8 8 8 8 13 11 7 11 6 9 2 17 6 14 10
23 21 19 18 19 20 19 17 17 16 15 15 16 18 17 14 11 8 4 2 0 1 2 4 6 7 6 4 4 8 11 8 6 9 8 7 10 15 19 12 4 19 9 8 6 11 10
23 23 22 21 19 17 17 18 19 18 17 17 18 18 17 14 9 4 3 3 2 1 2 4 7 8 5 5 7 10 11 10 9 10 9 9 9 15 17 8 15 6 7 7 16 22 12
21 22 22 21 21 20 19 18 17 17 16 16 17 19 18 13 6 4 3 4 3 2 3 7 7 5 7 6 10 12 13 12 10 10 11 11 9 16 17 6 7 6 3 7 16 17 21
20 20 20 20 20 21 21 21 21 21 20 19 18 18 17 13 5 3 4 4 5 6 6 10 4 7 11 10 11 12 13 12 11 10 12 13 13 13 11 9 8 3 1 12 11 14 17
19 19 20 19 20 20 21 21 21 22 22 22 21 19 17 11 3 1 1 4 2 3 13 10 6 9 4 9 11 12 13 12 12 13 12 14 11 11 12 14 14 15 17 18 9 17 6
19 19 19 20 21 21 21 22 22 22 22 22 21 20 16 10 1 1 1 4 6 7 7 20 8 8 6 9 11 12 14 14 16 14 15 14 11 16 10 6 13 15 20 3 15 15 16
18 19 20 20 21 22 22 22 22 22 22 22 21 19 16 9 1 3 4 9 6 6 8 16 16 14 11 12 13 16 17 20 14 15 16 16 13 13 2 5 9 9 12 14 2 5 8
18 19 20 21 23 24 24 23 23 23 23 22 21 19 16 7 2 4 7 5 6 5 5 13 14 14 16 13 15 16 19 18 8 15 17 15 18 3 4 10 10 14 11 7 5 9 5
18 19 20 21 21 23 24 24 25 25 24 22 22 19 15 9 5 3 3 5 4 3 5 12 15 11 15 14 6 13 18 20 16 14 14 15 13 14 10 12 12 13 13 9 9 11 14
18 19 20 21 22 22 23 24 24 25 25 23 21 19 14 7 6 5 7 6 3 6 6 11 12 11 16 20 8 14 17 20 14 16 14 18 14 13 16 11 13 12 11 11 12 12 11
18 19 20 21 22 23 23 24 24 24 25 23 20 19 14 7 2 5 5 6 6 7 8 12 14 12 17 16 15 12 15 17 14 12 16 17 19 10 10 12 14 14 11 9 8 10 11
19 19 20 21 22 23 24 25 25 25 25 25 20 15 13 9 9 7 4 7 9 13 15 9 11 13 17 17 17 14 13 16 19 19 13 12 14 20 17 18 14 14 16 11 11 12 11
20 21 22 23 24 24 25 26 26 25 24 26 21 10 9 5 3 7 10 10 8 13 9 2 10 12 16 17 14 17 18 17 18 19 18 13 17 10 20 15 16 16 13 18 19 20 12
21 22 23 24 24 25 25 25 26 24 22 23 23 14 12 12 4 6 9 17 18 18 13 11 12 9 15 17 18 16 17 14 20 19 20 19 14 17 14 16 18 17 13 12 10 15 15
21 22 23 23 24 24 25 25 25 25 21 17 15 9 7 5 4 11 11 15 18 20 16 8 15 18 17 16 16 18 18 17 12 17 17 17 15 13 12 12 16 12 16 16 15 11 12
21 21 22 22 23 23 23 23 24 25 23 15 7 6 7 5 10 12 13 20 24 24 19 8 13 18 20 20 17 20 21 19 9 14 17 17 10 15 17 11 13 17 17 18 12 14 14
20 20 21 22 22 22 21 21 21 22 24 24 10 18 16 7 8 11 19 22 24 18 12 14 18 15 18 18 20 19 20 18 23 15 12 14 10 15 17 15 16 16 19 18 18 16 17
18 19 20 20 21 22 22 20 17 16 15 15 8 5 9 15 13 14 17 17 19 20 15 14 20 18 17 17 17 20 21 19 19 19 9 8 16 14 15 17 15 19 16 18 17 13 15
19 18 18 19 21 23 25 26 21 13 10 11 6 6 13 8 13 17 18 15 15 16 20 15 15 15 18 17 17 18 18 20 19 13 10 12 18 19 20 23 22 17 18 22 20 20 19
16 14 15 17 19 21 23 24 23 19 8 5 7 16 16 22 22 19 15 16 18 20 19 18 20 16 16 18 17 18 20 18 17 14 15 15 16 18 23 22 22 23 20 16 18 19 21
10 10 12 15 18 19 21 24 24 19 10 5 11 14 16 14 17 14 14 18 18 17 19 21 19 17 16 18 15 16 21 24 16 16 18 18 15 16 21 21 21 24 23 21 20 15 17
5 6 10 14 18 21 23 24 24 22 14 10 13 14 13 11 14 15 18 18 18 17 16 18 19 8 11 17 21 19 21 24 24 17 19 15 12 13 16 18 29 19 20 24 23 22 18
2 5 11 14 18 21 23 24 24 23 17 13 9 10 14 12 19 19 20 16 21 18 13 18 21 19 13 16 12 13 14 16 22 21 18 19 15 12 13 18 20 20 22 22 20 19 19
3 6 10 13 17 21 23 25 23 24 16 12 8 8 8 12 10 17 16 18 13 13 14 17 18 17 18 8 9 16 14 18 17 20 22 22 19 13 14 20 25 17 20 26 18 16 16
5 5 8 12 18 21 23 26 24 21 14 9 5 8 6 8 23 17 14 14 18 15 9 17 13 7 12 6 11 14 17 19 21 22 19 16 15 16 16 19 23 20 24 25 11 9 17
8 8 9 13 18 21 21 23 25 20 13 8 8 9 8 6 25 21 20 16 17 14 8 12 9 6 9 10 10 14 16 17 19 19 20 18 3 13 17 19 25 24 24 15 4 24 22
12 11 12 14 17 19 19 20 24 22 14 8 8 4 12 12 19 22 21 19 19 16 17 17 11 7 3 4 3 6 11 14 17 15 8 9 10 8 8 9 17 20 17 11 6 8 19
Wind_Direction
32 30 31 36 32 30 27 23 18 14 9 4 358 356 351 346 342 334 329 320 302 264 248 199 190 197 192 237 252 281 182 181 175 203 253 265 284 127 276 287 234 35 319 12 112 110 103
37 39 32 25 30 32 30 27 24 20 15 5 0 355 350 347 345 336 327 322 298 245 214 197 185 192 195 257 264 180 172 175 173 216 245 268 314 321 344 6 333 219 279 231 160 90 157
29 35 42 40 30 26 28 30 26 22 16 9 1 354 352 350 346 342 351 359 305 229 190 186 184 189 245 284 192 176 180 192 208 221 262 268 293 308 301 171 150 312 344 316 166 152 98
26 28 32 37 42 39 31 22 19 18 15 8 2 358 355 353 353 12 28 26 47 146 171 177 178 185 271 183 183 190 199 210 223 232 261 292 287 290 284 277 175 29 43 357 302 329 99
26 25 25 27 27 27 26 23 21 19 15 10 2 357 357 357 10 31 52 56 77 119 149 160 164 208 243 201 193 201 198 210 230 245 255 274 279 278 278 231 54 59 112 113 328 308 252
22 22 20 18 18 17 16 15 13 10 10 8 5 0 357 357 14 57 91 77 87 112 147 155 200 243 212 215 191 194 201 210 222 237 252 254 267 253 230 203 155 198 208 164 188 295 337
13 14 14 13 11 10 9 8 7 5 4 2 1 0 356 354 355 14 234 329 257 199 206 224 239 248 149 173 173 193 196 205 217 224 230 221 239 244 251 113 156 163 203 197 109 295 348
5 7 8 6 6 4 3 1 1 0 359 358 358 357 354 352 323 355 217 253 4 319 273 235 238 234 170 178 184 199 191 200 204 220 222 241 232 264 279 104 166 197 220 270 182 203 133
357 358 359 360 360 358 357 356 355 354 354 353 353 354 352 352 289 226 292 305 314 317 267 202 211 220 204 192 211 193 193 205 201 224 224 241 239 229 349 213 271 269 294 173 236 228 216
352 351 352 353 353 353 352 352 351 350 350 350 348 349 348 338 352 313 266 280 322 314 275 177 197 220 191 208 231 200 199 202 220 229 232 232 259 215 218 259 241 269 210 281 296 271 302
348 348 347 348 348 348 347 347 347 346 346 346 343 343 345 326 278 280 301 315 294 260 278 137 169 179 180 197 182 191 195 218 240 217 233 241 229 256 229 250 249 275 309 340 296 270 280
348 347 347 346 346 345 343 342 342 342 340 340 338 335 337 340 297 243 307 299 295 236 251 166 150 192 191 215 185 168 190 223 239 260 238 258 258 235 258 223 253 271 286 267 268 268 270
347 346 346 346 345 344 341 339 338 338 336 333 330 323 315 278 140 295 277 271 232 245 132 160 175 196 210 199 223 190 198 206 223 220 246 234 246 236 258 265 238 233 245 249 241 232 242
346 345 344 344 343 342 340 338 336 336 334 328 325 315 310 270 249 274 247 235 249 266 196 102 195 193 210 209 211 199 212 219 219 239 258 215 232 219 207 227 242 219 226 242 240 244 246
342 341 341 340 340 339 339 337 336 337 337 328 331 327 289 311 238 225 231 224 241 227 318 190 202 215 206 219 225 202 211 228 228 218 248 263 246 236 204 203 233 241 217 249 267 284 286
340 339 339 339 340 340 340 339 336 336 338 330 333 319 253 198 230 211 235 241 270 300 323 305 271 220 243 216 220 229 211 223 238 228 213 255 278 282 176 198 215 244 246 224 233 259 276
337 337 338 340 341 342 343 342 340 339 342 336 328 289 161 193 209 229 241 251 258 261 266 268 271 276 266 256 226 227 234 240 222 237 227 224 251 270 172 196 228 210 239 256 271 232 241
334 336 338 339 339 340 342 342 343 344 348 345 306 275 163 218 239 238 247 252 263 279 289 264 268 283 287 289 270 262 230 240 269 203 238 216 236 240 255 214 206 256 233 230 241 241 273
334 335 335 335 336 337 340 341 343 346 351 354 312 286 276 220 260 257 254 257 256 268 284 278 270 253 274 273 283 282 274 264 243 204 230 233 220 249 247 233 205 218 239 244 229 242 261
330 333 337 341 343 343 342 344 342 341 344 344 307 300 218 212 250 269 283 289 294 290 241 266 281 287 275 267 269 270 273 276 274 253 154 279 244 230 241 234 236 199 222 245 252 245 228
342 347 352 1 3 2 358 356 355 342 337 340 263 299 340 301 305 327 317 309 296 290 288 277 250 265 277 276 273 271 266 267 268 239 179 226 253 254 256 264 271 273 219 209 227 249 257
348 1 8 7 4 2 1 357 359 349 336 312 300 334 321 301 300 298 285 275 276 281 287 280 281 275 251 275 265 290 281 269 260 251 208 213 245 252 259 261 258 264 262 259 225 219 243
353 7 8 6 4 2 360 359 358 357 341 311 316 309 298 279 287 286 278 283 282 283 278 274 278 290 306 336 329 312 306 305 296 293 298 216 229 240 250 250 262 258 252 256 253 238 225
347 6 5 4 4 2 358 355 352 352 340 296 296 308 294 284 287 282 289 291 287 283 281 304 306 299 279 332 313 304 290 282 273 274 284 282 272 223 250 247 243 255 250 250 252 251 244
329 354 357 1 1 0 357 354 350 344 328 311 295 283 282 278 275 281 279 285 290 288 291 293 282 285 295 306 295 279 267 261 267 268 265 274 273 265 251 244 258 251 243 255 259 258 251
302 344 355 359 359 357 355 353 346 341 327 314 296 257 277 280 247 308 302 290 299 288 280 248 267 270 279 262 281 268 258 271 263 260 271 259 260 259 261 254 252 253 250 266 273 260 256
276 311 340 353 356 354 354 353 349 344 339 314 282 245 250 269 273 285 289 327 319 323 305 318 349 302 273 279 251 250 259 257 256 256 263 268 246 253 245 255 259 262 277 285 298 302 293
265 280 312 333 343 346 348 352 353 347 340 327 301 239 223 267 272 290 302 295 303 317 318 309 320 258 263 254 253 256 262 254 258 259 259 243 253 270 236 254 249 246 257 266 58 354 329
265 277 296 317 331 336 338 346 353 353 343 331 299 275 236 258 268 292 289 283 282 283 287 288 275 294 316 303 298 299 270 275 269 261 252 261 267 270 242 248 318 315 353 313 169 320 324